Regional Weather Roundup
Issued by NWS Jackson, KY

Home | Current Version | Previous Version | Text Only | Print | Product List | Glossary On
Versions: 1 2 3 4 5 6 7 8 9 10 11 12 13 14 15 16 17 18 19 20 21 22 23 24 25 26 27 28 29 30 31 32 33 34 35 36 37 38 39 40 41 42 43 44 45 46 47 48 49 50
000
ASUS43 KJKL 280510
RWRJKL

EAST KENTUCKY HOURLY WEATHER ROUNDUP
NATIONAL WEATHER SERVICE JACKSON KY
1200 AM EST WED JAN 28 2015

NOTE: "FAIR" INDICATES FEW OR NO CLOUDS BELOW 12,000 FEET WITH
NO SIGNIFICANT WEATHER AND/OR OBSTRUCTIONS TO VISIBILITY.

* THESE REPORTS ARE NOT UNDER NWS QUALITY CONTROL AND MAY NOT
  REPORT WEATHER SUCH AS PRECIPITATION AND FOG.

KYZ079-080-083-085-087-088-110-112-115-119-120-280600
...EASTERN KENTUCKY...

CITY           SKY/WX    TMP DP  RH WIND       PRES   REMARKS
JACKSON        CLEAR     20  11  68 CALM      30.19R
LONDON         CLEAR     25  12  58 N6        30.20R WCI  18
SOMERSET*      CLEAR     27  14  59 N3        30.23R
MONTICELLO*    PTCLDY    26  20  78 CALM      30.25R
MIDDLESBORO*   MOCLDY    27  17  65 N7        30.20R WCI  19
HARLAN APT*    CLEAR     25  14  63 CALM      30.17R
HAZARD APT*    CLEAR     23  12  63 CALM      30.20R
BLACK MTN*       N/A     10  10 100 VRB12       N/A  WCI  -4
PIKEVILLE APT* CLOUDY    19  14  79 N6        30.17R WCI  11
BIG SANDY*     CLOUDY    22  15  76 NE7       30.19R WCI  13
MOREHEAD APT*  CLEAR     19  12  73 VRB3      30.25R
$$

KYZ035-036-041-042-044-050-067-078-099-280600
...CENTRAL KENTUCKY...

CITY           SKY/WX    TMP DP  RH WIND       PRES   REMARKS
MT STERLING*   CLEAR     21  16  79 NE5       30.25R WCI  15
FLEMING/MASON* CLEAR     18  12  79 NE3       30.25S
DANVILLE*      CLEAR     21  14  73 N5        30.23R WCI  15
RICHMOND*      CLEAR     21  14  73 NE5       30.22S WCI  15
LEXINGTON      CLEAR     19  11  70 NE5       30.23S WCI  12
FRANKFORT      CLEAR     22  11  62 NE5       30.24R WCI  16
$$

KYZ091>093-OHZ055-061-077-WVZ005-015-034-035-042-280600
...SOUTHERN OHIO/WEST VIRGINIA...

CITY           SKY/WX    TMP DP  RH WIND       PRES   REMARKS
COVINGTON      CLEAR     20  12  71 CALM      30.24S
COLUMBUS       PTCLDY    14   9  80 W3        30.22R
DAYTON         PTCLDY    12   9  87 W5        30.23R FOG     WCI   4
WILMINGTON     PTCLDY    11   7  84 CALM      30.22R
HUNTINGTON     CLOUDY    22  14  71 N7        30.22R WCI  13
CHARLESTON     FLURRIES  22  15  75 W6        30.19R WCI  14
PINEVILLE*     FLURRIES  24  17  77 MISG      30.17R
BECKLEY        FLURRIES  17  12  80 NW9       30.05R WCI   6
BLUEFIELD      FLURRIES  19  10  68 NW9G21    30.03R WCI   8
$$

VAZ002-007-008-TNZ017-027-036-066-071-280600
...SOUTHWEST VIRGINIA/EAST TENNESSEE...

CITY           SKY/WX    TMP DP  RH WIND       PRES   REMARKS
WISE*          CLEAR     21  10  63 CALM      30.09R
JONESVILLE*    CLEAR     25  10  54 CALM      30.18R
ABINGDON*      PTCLDY    25  13  61 N6        30.10R WCI  18
BRISTOL        PTCLDY    27  12  53 NW8       30.14R WCI  19
KNOXVILLE      CLOUDY    32  22  66 N8        30.18R WCI  25
OAK RIDGE      CLOUDY    33  24  69 CALM      30.20R
CROSSVILLE     CLOUDY    30  25  81 N7        30.15S WCI  23
NASHVILLE      CLOUDY    35  30  82 N7        30.24R WCI  29
$$

...KEY TO REMARKS...
VSB - VISIBILITY IN MILES
WCI - WIND CHILL INDEX
HX  - HEAT INDEX

$$


USA.gov is the U.S. government's official web portal to all federal, state and local government web resources and services.